Torna al catalogo

HAIYANG 2B

AttivoScienzaSSO
NORAD 43655·PAYLOAD·🇨🇳 China

Lanciato Oct 24, 2018 da Taiyuan Satellite Launch Center

Loading…

Prossimi Passaggi (prossime 24 ore)

TLE

AggiornatoSource: CelesTrak SupGP

Epoca: Sep 14, 2026, 00:00 UTC

1 43655C 18081A   26257.00000000 -.00000057  00000+0 -56126-4 0  2577
2 43655  99.3324 264.4278 0001825  71.1515 174.9455 13.79306075    11

Traccia HAIYANG 2B in tempo reale con AllMySat

Download on the App Store